(304968) = 2005 EM321 = 2007 TE132

Discovered at Mount Lemmon on 2007-10-07 by Mt. Lemmon Survey.

Orbit

Orbit type: Main Belt

Note: WebGL enabled browser required.

epoch2024-03-31.0
epoch JD2460400.5
perihelion date2023-05-27.82344
perihelion JD2460092.32344
argument of perihelion (°)230.44814
ascending node (°)194.74782
inclination (°)3.03984
eccentricity0.1396681
perihelion distance (AU)2.1095526
Tisserand w.r.t. Jupiter3.5
ΔV w.r.t. Earth (km/sec)9.1
semimajor axis (AU)2.4520219
mean anomaly (°)79.10737
mean daily motion (°/day)0.25669500
aphelion distance (AU)2.794
period (years)3.84
P-vector [x]0.41979235
P-vector [y]0.84814448
P-vector [z]0.32314908
Q-vector [x]-0.90751978
Q-vector [y]0.39753590
Q-vector [z]0.13554727
absolute magnitude17.37
phase slope0.15
uncertainty0
referenceMPEC 2024-D82
observations used344
oppositions16
arc length (days)9848
first opposition used1997
last opposition used2024
residual rms (arc-secs)0.66
perturbers coarse indicatorM-v
perturbers precise indicator003Ek
first observation date used1997-03-04.0
last observation date used2024-02-19.0
computer nameMPCLINUX
JD of orbit computation2456909.229498
perihelion JD uncertainty (days)7.0206E-05
argument of perihelion uncertainty (°)7.6056E-05
ascending node uncertainty (°)7.3967E-05
inclination uncertainty (°)5.3578E-06
eccentricity uncertainty 4.9267E-08
perihelion distance uncertainty (AU)1.2028E-07
Minimum Orbit Intersection Distances (in AU)
for orbit epoch: 2460400.5, reference: E2024-D82
Mercury1.80084
Venus1.38853
Earth1.12483
Mars0.57798
Jupiter2.49449
Saturn6.87687
Uranus15.8859
Neptune27.593

Observations

353 total observations over interval: 1997 03 04.13451 – 2024 02 19.220106
These data are available for download (format description).

Date (UT) J2000 RA J2000 Dec Magn Location Ref
1997 03 04.13451 08 31 12.02 +14 53 55.5 18.9 V 691 – Steward Observatory, Kitt Peak-Spacewatch MPS 279666
1997 03 04.15631 08 31 11.14 +14 54 04.3 21.3 V 691 – Steward Observatory, Kitt Peak-Spacewatch MPS 279666
1997 03 04.17805 08 31 10.61 +14 54 08.3 21.3 V 691 – Steward Observatory, Kitt Peak-Spacewatch MPS 279666
1999 09 14.29250 23 07 02.22 -03 06 25.0 20.4 V 691 – Steward Observatory, Kitt Peak-Spacewatch MPS 279666
1999 09 14.31662 23 07 00.91 -03 06 35.5 20.6 V 691 – Steward Observatory, Kitt Peak-Spacewatch MPS 279666
1999 09 14.34367 23 06 59.46 -03 06 46.9 20.6 V 691 – Steward Observatory, Kitt Peak-Spacewatch MPS 279666
2003 09 21.38152 00 55 46.37 +06 41 29.0 20.4 V 691 – Steward Observatory, Kitt Peak-Spacewatch MPS 279666
2003 09 21.40778 00 55 45.18 +06 41 19.1 20.5 V 691 – Steward Observatory, Kitt Peak-Spacewatch MPS 279666
2003 09 21.43428 00 55 44.00 +06 41 09.5 20.7 V 691 – Steward Observatory, Kitt Peak-Spacewatch MPS 279666
2003 10 19.27140 00 33 04.98 +03 25 08.5 20.5 V 691 – Steward Observatory, Kitt Peak-Spacewatch MPS 279666
2003 10 19.29912 00 33 03.67 +03 24 57.3 20.5 V 691 – Steward Observatory, Kitt Peak-Spacewatch MPS 279666
2003 10 19.32761 00 33 02.31 +03 24 46.1 20.4 V 691 – Steward Observatory, Kitt Peak-Spacewatch MPS 279666
2005 03 11.31122 11 41 12.48 +00 04 00.6 19.5 R G96 – Mt. Lemmon Survey MPC 54935
2005 03 11.31790 11 41 12.07 +00 04 03.4 19.9 R G96 – Mt. Lemmon Survey MPC 54935
2005 03 11.32454 11 41 11.71 +00 04 05.7 20.1 R G96 – Mt. Lemmon Survey MPC 54935
2005 03 11.33125 11 41 11.33 +00 04 08.7 19.6 R G96 – Mt. Lemmon Survey MPC 54935
2005 04 06.25010 11 20 19.66 +02 55 42.5 20.6 R G96 – Mt. Lemmon Survey MPS 226975
2005 04 06.25610 11 20 19.44 +02 55 44.0 19.8 R G96 – Mt. Lemmon Survey MPS 226975
2005 04 06.26207 11 20 19.21 +02 55 45.9 20.2 R G96 – Mt. Lemmon Survey MPS 226975
2005 04 06.26810 11 20 18.96 +02 55 48.4 19.8 R G96 – Mt. Lemmon Survey MPS 226975
2007 09 09.41624 02 50 49.88 +15 49 13.0 20.7 V G96 – Mt. Lemmon Survey MPS 226975
2007 09 09.42064 02 50 49.99 +15 49 13.2 20.9 V G96 – Mt. Lemmon Survey MPS 226975
2007 09 09.42501 02 50 50.10 +15 49 13.0 20.9 V G96 – Mt. Lemmon Survey MPS 226975
2007 09 09.42948 02 50 50.20 +15 49 13.2 20.9 V G96 – Mt. Lemmon Survey MPS 226975
2007 10 06.39363 02 51 05.51 +14 55 05.0   691 – Steward Observatory, Kitt Peak-Spacewatch MPS 444789
2007 10 07.39941 02 50 39.40 +14 50 52.4 20.1 V G96 – Mt. Lemmon Survey MPS 220848
2007 10 07.40495 02 50 39.22 +14 50 50.8 20.0 V G96 – Mt. Lemmon Survey MPS 220848
2007 10 07.41059 02 50 39.08 +14 50 49.4 20.2 V G96 – Mt. Lemmon Survey MPS 220848
2007 10 07.41609 02 50 38.94 +14 50 47.9 20.1 V G96 – Mt. Lemmon Survey MPS 220848
2007 10 10.32157 02 49 13.34 +14 37 49.1 19.8 V 691 – Steward Observatory, Kitt Peak-Spacewatch MPS 220848
2007 10 10.33922 02 49 12.78 +14 37 44.2 19.8 V 691 – Steward Observatory, Kitt Peak-Spacewatch MPS 220848
2007 10 10.35686 02 49 12.15 +14 37 39.1 20.0 V 691 – Steward Observatory, Kitt Peak-Spacewatch MPS 220848
2007 10 14.28297 02 46 53.53 +14 18 16.1   704 – Lincoln Laboratory ETS, New Mexico MPS 407632
2007 10 14.29409 02 46 53.08 +14 18 12.7   704 – Lincoln Laboratory ETS, New Mexico MPS 407632
2007 10 14.30522 02 46 52.66 +14 18 08.8   704 – Lincoln Laboratory ETS, New Mexico MPS 407632
2007 10 14.30761 02 46 52.53 +14 18 08.7 19.9 V 691 – Steward Observatory, Kitt Peak-Spacewatch MPS 223606
2007 10 14.32528 02 46 51.77 +14 18 03.4 20.0 V 691 – Steward Observatory, Kitt Peak-Spacewatch MPS 223606
2007 10 14.34294 02 46 51.07 +14 17 57.9 20.0 V 691 – Steward Observatory, Kitt Peak-Spacewatch MPS 223606
2007 10 15.34898 02 46 11.46 +14 12 40.1 20.4 V 703 – Catalina Sky Survey MPS 223606
2007 10 15.35699 02 46 11.17 +14 12 38.8 20.0 V 703 – Catalina Sky Survey MPS 223606
2007 10 15.36505 02 46 10.77 +14 12 35.2 20.4 V 703 – Catalina Sky Survey MPS 223606
2007 10 15.37309 02 46 10.45 +14 12 33.9 20.5 V 703 – Catalina Sky Survey MPS 223606
2007 10 18.32247 02 44 06.39 +13 56 25.9 19.4 V 691 – Steward Observatory, Kitt Peak-Spacewatch MPS 229069
2007 10 18.34016 02 44 05.56 +13 56 20.7 19.6 V 691 – Steward Observatory, Kitt Peak-Spacewatch MPS 229069
2007 10 18.35547 02 44 04.87 +13 56 14.7 19.9 V 691 – Steward Observatory, Kitt Peak-Spacewatch MPS 229069
2007 10 30.34292 02 34 06.63 +12 43 41.0 19.4 V 703 – Catalina Sky Survey MPS 223606
2007 10 30.35292 02 34 05.98 +12 43 37.3 19.5 V 703 – Catalina Sky Survey MPS 223606
2007 10 30.36297 02 34 05.44 +12 43 32.8 19.4 V 703 – Catalina Sky Survey MPS 223606
2007 10 30.37300 02 34 04.80 +12 43 29.4 19.9 V 703 – Catalina Sky Survey MPS 223606
2007 11 01.24655 02 32 23.78 +12 31 38.3 18.8 V G96 – Mt. Lemmon Survey MPS 223606
2007 11 01.25218 02 32 23.46 +12 31 35.2 18.3 V G96 – Mt. Lemmon Survey MPS 223606
2007 11 01.25771 02 32 23.13 +12 31 34.1 19.2 V G96 – Mt. Lemmon Survey MPS 223606
2007 11 01.26324 02 32 22.81 +12 31 32.0 19.4 V G96 – Mt. Lemmon Survey MPS 223606
2007 11 01.41987 02 32 13.89 +12 30 32.8   291 – LPL/Spacewatch II MPS 223606
2007 11 01.42400 02 32 13.65 +12 30 31.1   291 – LPL/Spacewatch II MPS 223606
2007 11 01.42776 02 32 13.46 +12 30 29.7   291 – LPL/Spacewatch II MPS 223606
2007 11 02.33387 02 31 24.38 +12 24 46.1 19.4 V G96 – Mt. Lemmon Survey MPS 225029
2007 11 02.34116 02 31 23.95 +12 24 43.3 19.3 V G96 – Mt. Lemmon Survey MPS 225029
2007 11 02.34840 02 31 23.52 +12 24 40.5 19.3 V G96 – Mt. Lemmon Survey MPS 225029
2007 11 02.35576 02 31 23.12 +12 24 37.7 19.3 V G96 – Mt. Lemmon Survey MPS 225029
2007 11 05.25452 02 28 45.57 +12 06 25.7 19.8   704 – Lincoln Laboratory ETS, New Mexico MPS 225029
2007 11 05.26670 02 28 44.88 +12 06 21.3 19.5   704 – Lincoln Laboratory ETS, New Mexico MPS 225029
2007 11 05.27884 02 28 44.19 +12 06 16.9 19.7   704 – Lincoln Laboratory ETS, New Mexico MPS 225029
2007 11 05.29090 02 28 43.46 +12 06 12.5 19.9   704 – Lincoln Laboratory ETS, New Mexico MPS 225029
2007 11 05.30298 02 28 42.80 +12 06 08.3 19.8   704 – Lincoln Laboratory ETS, New Mexico MPS 225029
2007 11 07.27937 02 26 56.22 +11 53 53.6 19.4 V G96 – Mt. Lemmon Survey MPS 226975
2007 11 07.28563 02 26 55.86 +11 53 51.2 19.5 V G96 – Mt. Lemmon Survey MPS 226975
2007 11 07.29183 02 26 55.50 +11 53 49.0 18.9 V G96 – Mt. Lemmon Survey MPS 226975
2007 11 07.29807 02 26 55.14 +11 53 46.6 19.4 V G96 – Mt. Lemmon Survey MPS 226975
2007 11 14.19826 02 20 59.65 +11 13 21.1 19.5   704 – Lincoln Laboratory ETS, New Mexico MPS 226975
2007 11 14.21052 02 20 59.05 +11 13 16.9 19.9   704 – Lincoln Laboratory ETS, New Mexico MPS 226975
2007 11 14.22278 02 20 58.48 +11 13 13.9 20.2   704 – Lincoln Laboratory ETS, New Mexico MPS 226975
2007 11 14.23505 02 20 57.83 +11 13 09.0 20.0   704 – Lincoln Laboratory ETS, New Mexico MPS 226975
2007 11 14.24735 02 20 57.11 +11 13 05.6 19.8   704 – Lincoln Laboratory ETS, New Mexico MPS 226975
2007 11 17.20451 02 18 38.01 +10 57 21.0 19.7 V G96 – Mt. Lemmon Survey MPS 228330
2007 11 17.21065 02 18 37.72 +10 57 19.0 19.4 V G96 – Mt. Lemmon Survey MPS 228330
2007 11 17.21675 02 18 37.40 +10 57 17.2 19.9 V G96 – Mt. Lemmon Survey MPS 228330
2007 11 17.22285 02 18 37.11 +10 57 15.3 19.6 V G96 – Mt. Lemmon Survey MPS 228330
2009 04 28.19957 12 25 11.89 -02 26 21.1 21.6 V G96 – Mt. Lemmon Survey MPS 285716
2009 04 28.20505 12 25 11.64 -02 26 19.1 21.4 V G96 – Mt. Lemmon Survey MPS 285716
2009 04 28.21052 12 25 11.46 -02 26 17.9 21.2 V G96 – Mt. Lemmon Survey MPS 285716
2009 04 28.21577 12 25 11.24 -02 26 16.6 21.1 V G96 – Mt. Lemmon Survey MPS 285716
2011 10 21.41612 05 01 08.54 +19 34 07.8 20.2 V G96 – Mt. Lemmon Survey MPS 395070
2011 10 21.42600 05 01 08.58 +19 34 06.1 20.1 V G96 – Mt. Lemmon Survey MPS 395070
2011 10 21.43590 05 01 08.61 +19 34 04.8 20.3 V G96 – Mt. Lemmon Survey MPS 395070
2011 10 21.44583 05 01 08.58 +19 34 03.4 20.1 V G96 – Mt. Lemmon Survey MPS 395070
2011 10 26.42932 05 01 01.792 +19 21 09.81 20.7 w F51 – Pan-STARRS 1, Haleakala MPS 396369
2011 10 26.44382 05 01 01.660 +19 21 07.61 20.4 w F51 – Pan-STARRS 1, Haleakala MPS 396369
2011 10 26.45839 05 01 01.525 +19 21 05.36 20.5 w F51 – Pan-STARRS 1, Haleakala MPS 396369
